Location: McDonald Observatory
(30.6717°N, 104.0221°W)
Time: 15:38:20
(UTC-05:00)

Daily predictions for brighter satellites

Satellite Brightness Start Highest point End
(mag) Time Altitude Azimuth Time Altitude Azimuth Time Altitude Azimuth
Okean 3 4.1 21:11:03 10° SSE 21:14:58 35° E 21:18:52 10° NNE
ISS -2.7 21:12:58 10° WSW 21:16:08 49° NW 21:19:20 10° NNE
Resurs 01 Rocket 2.9 21:12:58 10° ESE 21:16:26 23° ENE 21:19:54 10° NNE
Thor Agena Rocket 3.7 21:12:21 10° NNE 21:17:29 53° E 21:22:32 10° S
ATLAS 3B R/B 2.8 21:10:30 10° SSW 21:17:48 80° ESE 21:24:50 10° NNE
Cosmos 304 Rocket 4.3 21:15:52 10° SSE 21:20:17 38° E 21:24:44 10° NE
BREEZE-M DEB (TANK) 4.5 21:22:26 10° N 21:22:37 10° N 21:22:48 10° NNE
EPKM 3.6 21:12:25 10° WSW 21:23:39 48° S 21:26:53 10° ESE
Abrixas rocket 2.1 21:22:24 10° SW 21:25:36 89° N 21:28:50 10° NE
Cosmos 2369 3.8 21:20:49 10° NNW 21:26:30 83° WSW 21:32:10 10° SSE
Atlas 2A Centaur Rocket 4.3 21:25:55 10° SW 21:31:24 59° SSE 22:05:48 10° E
Cosmos 44 3.6 21:26:18 10° NNW 21:31:42 85° WSW 21:37:06 10° SSE
Cosmos 2084 4.5 21:28:41 10° S 21:32:20 25° ESE 21:35:51 10° ENE
Cosmos 2151 Rocket 3.5 21:31:04 10° N 21:35:31 73° E 21:39:54 10° SSE
Cosmos 1459 Rocket 4.4 21:29:47 10° SSW 21:35:47 68° W 21:41:49 10° N
CZ-2D R/B 3.8 21:34:04 10° S 21:37:52 60° W 21:41:42 10° NNW
Tiangong 2 2.9 21:37:21 10° W 21:40:15 33° NNW 21:43:08 10° NE
GPS 2-04 Rocket1 3.4 21:36:56 10° WNW 21:41:03 54° NNE 21:44:56 12° E
Spot 2 Rocket 4.2 21:36:54 12° SE 21:41:03 35° ENE 21:45:36 10° N
Cosmos 1300 Rocket 3.6 21:37:34 10° N 21:41:52 57° E 21:46:06 10° SSE
Cosmos 2082 Rocket 4.4 21:39:41 10° WSW 21:44:32 29° WNW 21:49:26 10° N
Cosmos 468 Rocket 4.4 21:40:31 10° S 21:45:27 41° ESE 21:50:22 10° NNE
Timation 2 Rocket 4.1 21:39:50 10° S 21:45:29 46° ESE 21:51:11 10° NE
USA 186 1.7 21:45:08 10° S 21:48:11 81° W 21:51:27 10° NNW
Cosmos 2322 Rocket 4.0 21:49:10 10° NNE 21:52:24 15° ENE 21:54:59 12° E
Delta 7925 Rocket 3.5 21:48:20 10° WSW 21:52:52 48° S 21:55:55 19° ESE
Cosmos 1536 4.2 21:50:39 10° NNW 21:54:27 39° W 21:58:15 10° SSW
Cosmos 1763 Rocket 4.3 21:50:36 11° SSE 21:55:01 30° E 21:59:36 10° NE
FUSE 4.4 21:50:42 10° WSW 21:55:40 41° S 21:58:52 20° ESE
Delta 168 3.2 21:56:00 10° WSW 21:59:04 30° S 21:59:57 25° SSE
SL-16 R/B 3.8 21:56:28 10° NNE 22:00:31 20° ENE 22:02:56 15° E
Cosmos 1570 Rocket 4.1 21:56:52 10° SSW 22:02:12 86° WNW 22:07:34 10° NNE
ATLAS CENTAUR R/B 1.7 22:00:01 10° NNW 22:04:38 65° ENE 22:07:21 25° SE
Resurs 1-3 3.6 22:01:50 13° S 22:05:42 83° WSW 22:10:06 10° NNW
Atlas Centaur 2 0.9 22:02:56 10° W 22:06:48 86° S 22:08:29 29° E
Cosmos 1975 3.4 22:03:15 10° NNE 22:07:01 37° E 22:08:17 29° ESE
Cosmos 909 Rocket 4.5 22:06:00 10° NNW 22:12:29 72° WSW 22:18:53 16° SSE
Cosmos 1725 Rocket 4.4 22:10:59 10° SSW 22:17:03 63° W 22:23:13 10° N
Cosmos 2360 4.2 22:11:46 10° NNW 22:17:30 86° WSW 22:21:12 23° SSE
YAOGAN 6 4.5 22:16:35 10° SSW 22:19:49 28° W 22:23:03 10° NW
Tsikada Rocket 4.0 22:13:52 10° N 22:20:19 85° E 22:25:24 17° S
Meteor 1-19 Rocket 4.3 22:15:51 14° S 22:20:56 63° E 22:26:47 10° NNE
H-2A R/B 2.9 22:22:16 27° E 22:23:24 30° ENE 22:27:42 10° N
Meteor 1-12 Rocket 4.4 22:22:16 10° N 22:28:11 62° E 22:30:59 32° SSE
ERS-1 Rocket 4.0 22:27:53 26° E 22:28:43 28° ENE 22:32:56 10° NNE
NOSS 3-2 (C) 4.0 22:24:01 10° SW 22:29:41 58° WNW 22:35:53 10° NNE
Cosmos 2346 Rocket 4.4 22:25:30 10° N 22:31:45 85° E 22:35:31 25° S
Cosmos 1898 Rocket 3.9 22:27:43 10° N 22:32:50 47° ENE 22:34:15 38° ESE
Cosmos 1814 Rocket 3.9 22:29:01 18° S 22:32:54 70° ESE 22:38:09 10° NNE
Cosmos 1697 Rocket 4.2 22:28:38 10° NW 22:33:32 31° WSW 22:38:24 10° SSW
SL-08 RB Rocket 4.3 22:33:23 35° E 22:33:53 37° ENE 22:38:02 10° N
Cosmos 1975 Rocket 3.0 22:32:16 26° S 22:34:41 84° W 22:39:01 10° N
Cosmos 1242 Rocket 2.6 22:36:31 10° N 22:39:54 62° ENE 22:39:54 62° ENE
Okean 1 Rocket 3.9 22:36:44 10° NNW 22:40:55 47° W 22:43:14 23° SSW
Cosmos 2360 Rocket 3.9 22:39:51 10° NNE 22:43:36 18° ENE 22:44:22 17° ENE
Cosmos 1666 2.7 22:41:32 10° N 22:45:24 75° W 22:45:53 63° SSW
Terra 4.1 22:46:26 11° ENE 22:46:26 11° ENE 22:47:11 10° NE
Cosmos 1980 Rocket 3.0 22:41:05 10° NW 22:46:27 45° WSW 22:49:39 23° SSW
Cosmos 1743 2.9 22:48:46 10° NNW 22:52:33 65° W 22:52:47 63° WSW
Resurs 01 Rocket 3.7 22:49:27 11° SSW 22:52:46 23° W 22:56:15 10° NW
Meteor 2-20 4.5 22:47:07 10° N 22:53:11 62° E 22:54:39 48° SE
Meteor 2-9 Rocket 4.1 22:49:22 10° N 22:54:39 57° E 22:55:16 54° ESE
Cosmos 990 Rocket 4.1 22:50:01 10° N 22:55:09 55° ENE 22:55:37 53° E
CENTAUR R/B 2.3 22:50:37 10° SSW 22:56:19 87° WNW 23:02:49 10° NNE
Iridium 2 4.2 22:56:38 52° WSW 22:57:03 55° W 23:00:49 10° N
Cosmos 1544 Rocket 4.1 22:53:28 10° N 22:57:09 45° NE 22:57:09 45° NE
Helios 1A 4.3 22:59:33 28° NE 22:59:33 28° NE 23:02:15 10° N
Cosmos 1072 Rocket 4.4 22:57:24 41° S 22:59:46 77° E 23:06:05 10° N
Delta 142 3.9 22:54:21 10° W 23:00:48 71° S 23:01:19 66° SE
Mugunghwa Rocket 4.4 22:54:26 10° WSW 23:01:45 61° S 23:04:17 43° ESE
Cosmos 2150 Rocket 4.5 22:59:41 10° N 23:04:49 46° ENE 23:04:49 46° ENE
Meteor 2-4 Rocket 3.8 23:04:15 37° SSW 23:06:25 71° W 23:11:54 10° N
BREEZE-M DEB (TANK) 3.1 23:04:37 10° NW 23:07:05 72° N 23:07:05 72° N
Cosmos 1536 Rocket 4.2 23:09:06 45° NE 23:09:06 45° NE 23:12:22 10° NNE
Cosmos 1833 4.1 23:07:07 43° SSW 23:09:08 90° ESE 23:14:53 10° NNE
MetOp-A 4.3 23:08:02 51° SSW 23:09:15 69° WSW 23:14:36 10° NNW
SJ 16-02 3.5 23:10:21 10° NNE 23:12:06 16° NE 23:12:06 16° NE
Cosmos 1340 Rocket 3.4 23:14:06 55° NW 23:14:06 55° NW 23:17:34 10° N
Tiangong 2 4.4 23:16:40 10° NNW 23:17:37 11° N 23:18:33 10° N
GPS 2-04 Rocket1 4.2 23:16:41 10° WNW 23:19:17 33° W 23:19:17 33° W
Cosmos 2298 Rocket 4.0 23:19:35 10° NNW 23:24:38 79° NNE 23:24:38 79° NNE
Cosmos 1937 Rocket 3.8 23:28:40 10° NNW 23:33:28 58° W 23:33:28 58° W
Cosmos 540 Rocket 3.6 23:34:28 69° NW 23:34:28 69° NW 23:39:19 10° N
ARGOS 4.2 23:34:33 33° WSW 23:35:34 36° W 23:40:30 10° NNW
Cosmos 2322 Rocket 2.5 23:31:18 10° NNW 23:36:47 58° WSW 23:36:49 58° WSW
Helios 1B rocket 4.0 23:37:21 10° N 23:39:44 33° N 23:39:44 33° N
Cosmos 2034 Rocket 4.0 23:41:22 66° SW 23:41:58 72° W 23:48:07 10° N
ATLAS CENTAUR R/B 4.4 23:42:23 10° W 23:43:08 10° WSW 23:43:38 10° WSW
SL-16 R/B 2.9 23:39:24 10° NNW 23:44:47 45° WSW 23:44:49 45° WSW
Meteor 1-15 Rocket 4.4 23:44:37 10° N 23:49:32 67° N 23:49:32 67° N
